Volver al catálogo

STARLINK-1661

ActivoComunicacionesVLEO
NORAD 46355·PAYLOAD·🇺🇸 United States

Lanzado Sep 3, 2020 desde Cape Canaveral Space Force Station

Loading…

Próximos Pases (próximas 24 horas)

TLE

ActualizadoSource: CelesTrak SupGP

Época: Sep 14, 2026, 20:53 UTC

1 46355C 20062AH  26257.87062500  .00053538  00000+0  10159-2 0  2571
2 46355  53.1495 200.6962 0003887 103.0439 247.0813 15.47675468    12

Sigue STARLINK-1661 en tiempo real con AllMySat

Download on the App Store